| time (UTC) | temp F | wind direction | speed MPH | gust MPH | rain 1hr in | rain 24hr in | rain mn in | humidity % | barometer mb |
| 20260510200457 | 62 | 176 | 3.0 | 6.0 | 0.00 | 0.00 | 0.00 | 64 | 1017.9 |
| 20260510200107 | 0 | 0.0 | 0.0 | 0.00 | 0.00 | 0.00 | |||
| 20260510195957 | 62 | 191 | 3.0 | 5.0 | 0.00 | 0.00 | 0.00 | 61 | 1017.9 |
| 20260510195608 | 0 | 0.0 | 0.0 | 0.00 | 0.00 | 0.00 | |||
| 20260510195459 | 62 | 216 | 4.0 | 5.0 | 0.00 | 0.00 | 0.00 | 61 | 1017.9 |
| 20260510194957 | 62 | 175 | 3.0 | 4.0 | 0.00 | 0.00 | 0.00 | 60 | 1018.0 |
| 20260510194608 | 0 | 0.0 | 0.0 | 0.00 | 0.00 | 0.00 | |||
| 20260510194457 | 62 | 158 | 4.0 | 7.0 | 0.00 | 0.00 | 0.00 | 59 | 1018.1 |
| 20260510194108 | 0 | 0.0 | 0.0 | 0.00 | 0.00 | 0.00 | |||
| 20260510193958 | 62 | 189 | 2.0 | 4.0 | 0.00 | 0.00 | 0.00 | 60 | 1018.0 |
| 20260510193609 | 0 | 0.0 | 0.0 | 0.00 | 0.00 | 0.00 | |||
| 20260510193457 | 62 | 231 | 3.0 | 7.0 | 0.00 | 0.00 | 0.00 | 61 | 1017.9 |
| 20260510193108 | 0 | 0.0 | 0.0 | 0.00 | 0.00 | 0.00 | |||
| 20260510192957 | 60 | 308 | 2.0 | 5.0 | 0.00 | 0.00 | 0.00 | 62 | 1017.9 |
| 20260510192609 | 0 | 0.0 | 0.0 | 0.00 | 0.00 | 0.00 | |||
| 20260510192457 | 60 | 294 | 3.0 | 6.0 | 0.00 | 0.00 | 0.00 | 63 | 1017.9 |
| 20260510192105 | 0 | 0.0 | 0.0 | 0.00 | 0.00 | 0.00 | |||
| 20260510191958 | 60 | 244 | 2.0 | 6.0 | 0.00 | 0.00 | 0.00 | 64 | 1018.0 |
| 20260510191606 | 0 | 0.0 | 0.0 | 0.00 | 0.00 | 0.00 | |||
| 20260510191457 | 59 | 152 | 4.0 | 6.0 | 0.00 | 0.00 | 0.00 | 64 | 1018.1 |
| 20260510191105 | 0 | 0.0 | 0.0 | 0.00 | 0.00 | 0.00 | |||
| 20260510190958 | 59 | 154 | 3.0 | 6.0 | 0.00 | 0.00 | 0.00 | 67 | 1018.0 |
| 20260510190457 | 58 | 205 | 3.0 | 5.0 | 0.00 | 0.00 | 0.00 | 67 | 1018.0 |
| 20260510190106 | 0 | 0.0 | 0.0 | 0.00 | 0.00 | 0.00 | |||
| 20260510185957 | 58 | 181 | 2.0 | 3.0 | 0.00 | 0.00 | 0.00 | 66 | 1017.9 |
| 20260510185605 | 0 | 0.0 | 0.0 | 0.00 | 0.00 | 0.00 | |||
| 20260510185457 | 59 | 168 | 2.0 | 4.0 | 0.00 | 0.00 | 0.00 | 67 | 1017.9 |
| 20260510185106 | 0 | 0.0 | 0.0 | 0.00 | 0.00 | 0.00 | |||
| 20260510184957 | 59 | 242 | 4.0 | 6.0 | 0.00 | 0.00 | 0.00 | 65 | 1017.8 |
| 20260510184605 | 0 | 0.0 | 0.0 | 0.00 | 0.00 | 0.00 | |||
| 20260510184457 | 59 | 240 | 2.0 | 6.0 | 0.00 | 0.00 | 0.00 | 65 | 1017.7 |
| 20260510184105 | 0 | 0.0 | 0.0 | 0.00 | 0.00 | 0.00 | |||
| 20260510183957 | 60 | 283 | 3.0 | 6.0 | 0.00 | 0.00 | 0.00 | 62 | 1017.6 |
| 20260510183606 | 0 | 0.0 | 0.0 | 0.00 | 0.00 | 0.00 | |||
| 20260510183458 | 59 | 280 | 3.0 | 7.0 | 0.00 | 0.00 | 0.00 | 64 | 1017.6 |
| 20260510183103 | 0 | 0.0 | 0.0 | 0.00 | 0.00 | 0.00 | |||
| 20260510182957 | 59 | 206 | 3.0 | 4.0 | 0.00 | 0.00 | 0.00 | 64 | 1017.5 |
| 20260510182457 | 59 | 221 | 3.0 | 5.0 | 0.00 | 0.00 | 0.00 | 65 | 1017.6 |
| 20260510182103 | 0 | 0.0 | 0.0 | 0.00 | 0.00 | 0.00 | |||
| 20260510181957 | 59 | 155 | 2.0 | 3.0 | 0.00 | 0.00 | 0.00 | 64 | 1017.6 |
| 20260510181604 | 0 | 0.0 | 0.0 | 0.00 | 0.00 | 0.00 | |||
| 20260510181457 | 59 | 262 | 3.0 | 6.0 | 0.00 | 0.00 | 0.00 | 66 | 1017.6 |
| 20260510181103 | 0 | 0.0 | 0.0 | 0.00 | 0.00 | 0.00 | |||
| 20260510180957 | 58 | 201 | 3.0 | 5.0 | 0.00 | 0.00 | 0.00 | 65 | 1017.6 |
| 20260510180604 | 0 | 0.0 | 0.0 | 0.00 | 0.00 | 0.00 | |||
| 20260510180457 | 58 | 233 | 2.0 | 4.0 | 0.00 | 0.00 | 0.00 | 65 | 1017.6 |
| 20260510180103 | 0 | 0.0 | 0.0 | 0.00 | 0.00 | 0.00 | |||
| 20260510175957 | 58 | 197 | 1.0 | 3.0 | 0.00 | 0.00 | 0.00 | 67 | 1017.6 |
| 20260510175604 | 0 | 0.0 | 0.0 | 0.00 | 0.00 | 0.00 | |||
| 20260510175458 | 58 | 254 | 3.0 | 4.0 | 0.00 | 0.00 | 0.00 | 66 | 1017.6 |
| 20260510175104 | 0 | 0.0 | 0.0 | 0.00 | 0.00 | 0.00 | |||
| 20260510174958 | 58 | 278 | 2.0 | 5.0 | 0.00 | 0.00 | 0.00 | 67 | 1017.6 |
| 20260510174605 | 0 | 0.0 | 0.0 | 0.00 | 0.00 | 0.00 | |||
| 20260510174457 | 58 | 258 | 2.0 | 4.0 | 0.00 | 0.00 | 0.00 | 66 | 1017.6 |
| 20260510174104 | 0 | 0.0 | 0.0 | 0.00 | 0.00 | 0.00 | |||
| 20260510173958 | 57 | 175 | 2.0 | 5.0 | 0.00 | 0.00 | 0.00 | 68 | 1017.6 |
| 20260510173604 | 0 | 0.0 | 0.0 | 0.00 | 0.00 | 0.00 | |||
| 20260510173457 | 57 | 253 | 4.0 | 6.0 | 0.00 | 0.00 | 0.00 | 66 | 1017.5 |
| 20260510173104 | 0 | 0.0 | 0.0 | 0.00 | 0.00 | 0.00 | |||
| 20260510172957 | 57 | 237 | 2.0 | 4.0 | 0.00 | 0.00 | 0.00 | 68 | 1017.3 |
| 20260510172603 | 0 | 0.0 | 0.0 | 0.00 | 0.00 | 0.00 | |||
| 20260510172457 | 56 | 245 | 2.0 | 4.0 | 0.00 | 0.00 | 0.00 | 69 | 1017.2 |
| 20260510172106 | 0 | 0.0 | 0.0 | 0.00 | 0.00 | 0.00 | |||
| 20260510171957 | 56 | 169 | 3.0 | 5.0 | 0.00 | 0.00 | 0.00 | 69 | 1017.2 |
| 20260510171601 | 0 | 0.0 | 0.0 | 0.00 | 0.00 | 0.00 | |||
| 20260510171458 | 56 | 176 | 3.0 | 5.0 | 0.00 | 0.00 | 0.00 | 70 | 1017.2 |
| 20260510171058 | 0 | 0.0 | 0.0 | 0.00 | 0.00 | 0.00 | |||
| 20260510170957 | 56 | 204 | 2.0 | 3.0 | 0.00 | 0.00 | 0.00 | 69 | 1017.1 |
| 20260510170558 | 0 | 0.0 | 0.0 | 0.00 | 0.00 | 0.00 | |||
| 20260510170457 | 55 | 205 | 1.0 | 2.0 | 0.00 | 0.00 | 0.00 | 71 | 1017.2 |
| 20260510170056 | 0 | 0.0 | 0.0 | 0.00 | 0.00 | 0.00 | |||
| 20260510165957 | 55 | 222 | 0.0 | 2.0 | 0.00 | 0.00 | 0.00 | 72 | 1017.2 |
| 20260510165555 | 0 | 0.0 | 0.0 | 0.00 | 0.00 | 0.00 | |||
| 20260510165457 | 55 | 308 | 4.0 | 7.0 | 0.00 | 0.00 | 0.00 | 72 | 1017.1 |
| 20260510165056 | 0 | 0.0 | 0.0 | 0.00 | 0.00 | 0.00 | |||
| 20260510164958 | 54 | 347 | 1.0 | 3.0 | 0.00 | 0.00 | 0.00 | 74 | 1017.2 |
| 20260510164556 | 0 | 0.0 | 0.0 | 0.00 | 0.00 | 0.00 | |||
| 20260510164457 | 53 | 47 | 0.0 | 2.0 | 0.00 | 0.00 | 0.00 | 77 | 1017.3 |
| 20260510164056 | 0 | 0.0 | 0.0 | 0.00 | 0.00 | 0.00 | |||
| 20260510163957 | 53 | 154 | 2.0 | 3.0 | 0.00 | 0.00 | 0.00 | 77 | 1017.3 |
| 20260510163556 | 0 | 0.0 | 0.0 | 0.00 | 0.00 | 0.00 | |||
| 20260510163457 | 53 | 213 | 0.0 | 1.0 | 0.00 | 0.00 | 0.00 | 79 | 1017.2 |
| 20260510163056 | 0 | 0.0 | 0.0 | 0.00 | 0.00 | 0.00 | |||
| 20260510162958 | 54 | 192 | 1.0 | 2.0 | 0.00 | 0.00 | 0.00 | 78 | 1017.2 |
| 20260510162556 | 0 | 0.0 | 0.0 | 0.00 | 0.00 | 0.00 | |||
| 20260510162458 | 53 | 195 | 0.0 | 2.0 | 0.00 | 0.00 | 0.00 | 78 | 1017.2 |
| 20260510162054 | 0 | 0.0 | 0.0 | 0.00 | 0.00 | 0.00 | |||
| 20260510161957 | 53 | 0 | 0.0 | 0.0 | 0.00 | 0.00 | 0.00 | 82 | 1017.2 |
| 20260510161553 | 0 | 0.0 | 0.0 | 0.00 | 0.00 | 0.00 | |||
| 20260510161457 | 52 | 153 | 0.0 | 2.0 | 0.00 | 0.00 | 0.00 | 84 | 1017.0 |
| 20260510161050 | 0 | 0.0 | 0.0 | 0.00 | 0.00 | 0.00 | |||
| 20260510160957 | 52 | 177 | 0.0 | 2.0 | 0.00 | 0.00 | 0.00 | 85 | 1016.9 |
| 20260510160458 | 52 | 137 | 1.0 | 2.0 | 0.00 | 0.00 | 0.00 | 86 | 1016.8 |
| 20260510160047 | 0 | 0.0 | 0.0 | 0.00 | 0.00 | 0.00 | |||
| 20260510155957 | 52 | 183 | 1.0 | 2.0 | 0.00 | 0.00 | 0.00 | 85 | 1016.9 |
| 20260510155549 | 0 | 0.0 | 0.0 | 0.00 | 0.00 | 0.00 | |||
| 20260510155457 | 52 | 153 | 2.0 | 3.0 | 0.00 | 0.00 | 0.00 | 85 | 1016.8 |
| 20260510155048 | 0 | 0.0 | 0.0 | 0.00 | 0.00 | 0.00 | |||
| 20260510154957 | 52 | 122 | 2.0 | 3.0 | 0.00 | 0.00 | 0.00 | 86 | 1016.5 |
| 20260510154548 | 0 | 0.0 | 0.0 | 0.00 | 0.00 | 0.00 | |||
| 20260510154458 | 53 | 147 | 0.0 | 2.0 | 0.00 | 0.00 | 0.00 | 85 | 1016.4 |
| 20260510154048 | 0 | 0.0 | 0.0 | 0.00 | 0.00 | 0.00 | |||
| 20260510153957 | 53 | 140 | 3.0 | 4.0 | 0.00 | 0.00 | 0.00 | 84 | 1016.4 |
| 20260510153548 | 0 | 0.0 | 0.0 | 0.00 | 0.00 | 0.00 | |||
| 20260510153457 | 52 | 117 | 2.0 | 3.0 | 0.00 | 0.00 | 0.00 | 85 | 1016.4 |
| 20260510153048 | 0 | 0.0 | 0.0 | 0.00 | 0.00 | 0.00 | |||
| 20260510152957 | 52 | 109 | 4.0 | 6.0 | 0.00 | 0.00 | 0.00 | 86 | 1016.5 |
| 20260510152548 | 0 | 0.0 | 0.0 | 0.00 | 0.00 | 0.00 | |||
| 20260510152457 | 51 | 117 | 4.0 | 4.0 | 0.00 | 0.00 | 0.00 | 87 | 1016.5 |
| 20260510152048 | 0 | 0.0 | 0.0 | 0.00 | 0.00 | 0.00 | |||
| 20260510151957 | 51 | 109 | 4.0 | 5.0 | 0.00 | 0.00 | 0.00 | 86 | 1016.5 |
| 20260510151545 | 0 | 0.0 | 0.0 | 0.00 | 0.00 | 0.00 | |||
| 20260510151457 | 51 | 105 | 5.0 | 6.0 | 0.00 | 0.00 | 0.00 | 87 | 1016.4 |
| 20260510150958 | 51 | 125 | 4.0 | 5.0 | 0.00 | 0.00 | 0.00 | 87 | 1016.4 |
| 20260510150457 | 51 | 130 | 3.0 | 4.0 | 0.00 | 0.00 | 0.00 | 86 | 1016.2 |
| 20260510145958 | 52 | 110 | 4.0 | 4.0 | 0.00 | 0.00 | 0.00 | 85 | 1016.1 |
| 20260510145545 | 0 | 0.0 | 0.0 | 0.00 | 0.00 | 0.00 | |||
| 20260510145457 | 53 | 122 | 3.0 | 4.0 | 0.00 | 0.00 | 0.00 | 75 | 1015.9 |
| 20260510145040 | 0 | 0.0 | 0.0 | 0.00 | 0.00 | 0.00 | |||
| 20260510144957 | 52 | 96 | 3.0 | 4.0 | 0.00 | 0.00 | 0.00 | 72 | 1015.7 |
| 20260510144539 | 0 | 0.0 | 0.0 | 0.00 | 0.00 | 0.00 | |||
| 20260510144457 | 51 | 73 | 5.0 | 6.0 | 0.00 | 0.00 | 0.00 | 79 | 1015.8 |
| 20260510144039 | 0 | 0.0 | 0.0 | 0.00 | 0.00 | 0.00 | |||
| 20260510143957 | 49 | 95 | 6.0 | 8.0 | 0.00 | 0.00 | 0.00 | 90 | 1016.0 |
| 20260510143541 | 0 | 0.0 | 0.0 | 0.00 | 0.00 | 0.00 | |||
| 20260510143457 | 49 | 105 | 7.0 | 8.0 | 0.00 | 0.00 | 0.00 | 89 | 1016.4 |
| 20260510142957 | 50 | 106 | 6.0 | 8.0 | 0.00 | 0.00 | 0.00 | 87 | 1016.6 |
| 20260510142458 | 50 | 119 | 3.0 | 4.0 | 0.00 | 0.00 | 0.00 | 86 | 1016.6 |
| 20260510141958 | 50 | 99 | 6.0 | 6.0 | 0.00 | 0.00 | 0.00 | 87 | 1016.5 |
| 20260510141539 | 0 | 0.0 | 0.0 | 0.00 | 0.00 | 0.00 | |||
| 20260510141457 | 52 | 103 | 6.0 | 9.0 | 0.00 | 0.00 | 0.00 | 85 | 1016.4 |
| 20260510141038 | 0 | 0.0 | 0.0 | 0.00 | 0.00 | 0.00 | |||
| 20260510140957 | 53 | 111 | 4.0 | 5.0 | 0.00 | 0.00 | 0.00 | 78 | 1016.1 |
| 20260510140538 | 0 | 0.0 | 0.0 | 0.00 | 0.00 | 0.00 | |||
| 20260510140457 | 53 | 115 | 1.0 | 2.0 | 0.00 | 0.00 | 0.00 | 78 | 1016.0 |
| 20260510140038 | 0 | 0.0 | 0.0 | 0.00 | 0.00 | 0.00 | |||
| 20260510135957 | 53 | 104 | 3.0 | 5.0 | 0.00 | 0.00 | 0.00 | 78 | 1015.9 |
| 20260510135458 | 53 | 102 | 5.0 | 6.0 | 0.00 | 0.00 | 0.00 | 79 | 1016.0 |
| 20260510135036 | 0 | 0.0 | 0.0 | 0.00 | 0.00 | 0.00 | |||
| 20260510134957 | 52 | 107 | 5.0 | 6.0 | 0.00 | 0.00 | 0.00 | 80 | 1016.0 |
| 20260510134535 | 0 | 0.0 | 0.0 | 0.00 | 0.00 | 0.00 | |||
| 20260510134458 | 52 | 102 | 5.0 | 6.0 | 0.00 | 0.00 | 0.00 | 82 | 1016.0 |
| 20260510134037 | 0 | 0.0 | 0.0 | 0.00 | 0.00 | 0.00 | |||
| 20260510133957 | 53 | 117 | 4.0 | 5.0 | 0.00 | 0.00 | 0.00 | 78 | 1016.0 |
| 20260510133535 | 0 | 0.0 | 0.0 | 0.00 | 0.00 | 0.00 | |||
| 20260510133501 | 52 | 99 | 5.0 | 8.0 | 0.00 | 0.00 | 0.00 | 79 | 1015.8 |
| 20260510133035 | 0 | 0.0 | 0.0 | 0.00 | 0.00 | 0.00 | |||
| 20260510132958 | 52 | 101 | 5.0 | 6.0 | 0.00 | 0.00 | 0.00 | 80 | 1016.0 |
| 20260510132536 | 0 | 0.0 | 0.0 | 0.00 | 0.00 | 0.00 | |||
| 20260510132457 | 52 | 106 | 4.0 | 5.0 | 0.00 | 0.00 | 0.00 | 80 | 1016.1 |
| 20260510132036 | 0 | 0.0 | 0.0 | 0.00 | 0.00 | 0.00 | |||
| 20260510131958 | 51 | 96 | 6.0 | 8.0 | 0.00 | 0.00 | 0.00 | 80 | 1016.1 |
| 20260510131457 | 50 | 94 | 6.0 | 8.0 | 0.00 | 0.00 | 0.00 | 83 | 1016.0 |
| 20260510131037 | 0 | 0.0 | 0.0 | 0.00 | 0.00 | 0.00 | |||
| 20260510130957 | 50 | 94 | 7.0 | 8.0 | 0.00 | 0.00 | 0.00 | 84 | 1016.1 |
| 20260510130457 | 51 | 109 | 5.0 | 6.0 | 0.00 | 0.00 | 0.00 | 82 | 1016.1 |
| 20260510130036 | 0 | 0.0 | 0.0 | 0.00 | 0.00 | 0.00 | |||
| 20260510125957 | 51 | 105 | 6.0 | 6.0 | 0.00 | 0.00 | 0.00 | 81 | 1016.0 |
| 20260510125536 | 0 | 0.0 | 0.0 | 0.00 | 0.00 | 0.00 | |||
| 20260510125457 | 52 | 112 | 5.0 | 6.0 | 0.00 | 0.00 | 0.00 | 79 | 1016.0 |
| 20260510124957 | 52 | 110 | 5.0 | 5.0 | 0.00 | 0.00 | 0.00 | 77 | 1015.9 |
| 20260510124534 | 0 | 0.0 | 0.0 | 0.00 | 0.00 | 0.00 | |||
| 20260510124458 | 52 | 97 | 5.0 | 7.0 | 0.00 | 0.00 | 0.00 | 79 | 1015.8 |
| 20260510124033 | 0 | 0.0 | 0.0 | 0.00 | 0.00 | 0.00 | |||
| 20260510123957 | 53 | 108 | 5.0 | 5.0 | 0.00 | 0.00 | 0.00 | 76 | 1015.7 |
| 20260510123534 | 0 | 0.0 | 0.0 | 0.00 | 0.00 | 0.00 | |||
| 20260510123457 | 53 | 96 | 5.0 | 6.0 | 0.00 | 0.00 | 0.00 | 76 | 1015.6 |
| 20260510123033 | 0 | 0.0 | 0.0 | 0.00 | 0.00 | 0.00 | |||
| 20260510122957 | 53 | 104 | 4.0 | 4.0 | 0.00 | 0.00 | 0.00 | 74 | 1015.7 |
| 20260510122534 | 0 | 0.0 | 0.0 | 0.00 | 0.00 | 0.00 | |||
| 20260510122457 | 53 | 95 | 5.0 | 7.0 | 0.00 | 0.00 | 0.00 | 74 | 1015.6 |
| 20260510122034 | 0 | 0.0 | 0.0 | 0.00 | 0.00 | 0.00 | |||
| 20260510121957 | 53 | 99 | 4.0 | 6.0 | 0.00 | 0.00 | 0.00 | 73 | 1015.5 |
| 20260510121534 | 0 | 0.0 | 0.0 | 0.00 | 0.00 | 0.00 | |||
| 20260510121457 | 53 | 89 | 5.0 | 6.0 | 0.00 | 0.00 | 0.00 | 73 | 1015.6 |
| 20260510120957 | 53 | 78 | 4.0 | 4.0 | 0.00 | 0.00 | 0.00 | 74 | 1015.8 |
| 20260510120534 | 0 | 0.0 | 0.0 | 0.00 | 0.00 | 0.00 | |||
| 20260510120457 | 54 | 77 | 3.0 | 4.0 | 0.00 | 0.00 | 0.00 | 73 | 1015.8 |
| 20260510120034 | 0 | 0.0 | 0.0 | 0.00 | 0.00 | 0.00 | |||
| 20260510115957 | 54 | 78 | 4.0 | 5.0 | 0.00 | 0.00 | 0.00 | 73 | 1015.9 |
| 20260510115535 | 0 | 0.0 | 0.0 | 0.00 | 0.00 | 0.00 | |||
| 20260510115458 | 53 | 82 | 4.0 | 5.0 | 0.00 | 0.00 | 0.00 | 73 | 1016.0 |
| 20260510115032 | 0 | 0.0 | 0.0 | 0.00 | 0.00 | 0.00 | |||
| 20260510114957 | 53 | 98 | 5.0 | 6.0 | 0.00 | 0.00 | 0.00 | 73 | 1016.1 |
| 20260510114457 | 53 | 95 | 4.0 | 5.0 | 0.00 | 0.00 | 0.00 | 73 | 1016.1 |
| 20260510114034 | 0 | 0.0 | 0.0 | 0.00 | 0.00 | 0.00 | |||
| 20260510113957 | 53 | 105 | 4.0 | 6.0 | 0.00 | 0.00 | 0.00 | 74 | 1016.0 |
| 20260510113531 | 0 | 0.0 | 0.0 | 0.00 | 0.00 | 0.00 | |||
| 20260510113457 | 53 | 100 | 4.0 | 5.0 | 0.00 | 0.00 | 0.00 | 74 | 1016.0 |
| 20260510113032 | 0 | 0.0 | 0.0 | 0.00 | 0.00 | 0.00 | |||
| 20260510112957 | 52 | 98 | 5.0 | 5.0 | 0.00 | 0.00 | 0.00 | 76 | 1016.0 |
| 20260510112532 | 0 | 0.0 | 0.0 | 0.00 | 0.00 | 0.00 | |||
| 20260510112457 | 53 | 102 | 5.0 | 6.0 | 0.00 | 0.00 | 0.00 | 78 | 1015.9 |
| 20260510112032 | 0 | 0.0 | 0.0 | 0.00 | 0.00 | 0.00 | |||
| 20260510111957 | 54 | 108 | 3.0 | 4.0 | 0.00 | 0.00 | 0.00 | 71 | 1015.8 |
| 20260510111532 | 0 | 0.0 | 0.0 | 0.00 | 0.00 | 0.00 | |||
| 20260510111457 | 54 | 101 | 4.0 | 4.0 | 0.00 | 0.00 | 0.00 | 71 | 1015.8 |
| 20260510111032 | 0 | 0.0 | 0.0 | 0.00 | 0.00 | 0.00 | |||
| 20260510110958 | 54 | 97 | 4.0 | 5.0 | 0.00 | 0.00 | 0.00 | 71 | 1015.8 |
| 20260510110457 | 54 | 95 | 4.0 | 5.0 | 0.00 | 0.00 | 0.00 | 71 | 1015.8 |
| 20260510105957 | 54 | 95 | 4.0 | 5.0 | 0.00 | 0.00 | 0.00 | 71 | 1015.8 |
| 20260510105529 | 0 | 0.0 | 0.0 | 0.00 | 0.00 | 0.00 | |||
| 20260510105457 | 53 | 94 | 4.0 | 5.0 | 0.00 | 0.00 | 0.00 | 73 | 1015.9 |
| 20260510105030 | 0 | 0.0 | 0.0 | 0.00 | 0.00 | 0.00 | |||
| 20260510104958 | 54 | 109 | 4.0 | 6.0 | 0.00 | 0.00 | 0.00 | 73 | 1015.9 |
| 20260510104529 | 0 | 0.0 | 0.0 | 0.00 | 0.00 | 0.00 | |||
| 20260510104457 | 54 | 101 | 4.0 | 5.0 | 0.00 | 0.00 | 0.00 | 72 | 1015.8 |
| 20260510104029 | 0 | 0.0 | 0.0 | 0.00 | 0.00 | 0.00 | |||
| 20260510103957 | 55 | 91 | 4.0 | 4.0 | 0.00 | 0.00 | 0.00 | 72 | 1015.8 |
| 20260510103530 | 0 | 0.0 | 0.0 | 0.00 | 0.00 | 0.00 | |||
| 20260510103457 | 56 | 112 | 2.0 | 4.0 | 0.00 | 0.00 | 0.00 | 69 | 1015.7 |
| 20260510103029 | 0 | 0.0 | 0.0 | 0.00 | 0.00 | 0.00 | |||
| 20260510102957 | 56 | 311 | 1.0 | 2.0 | 0.00 | 0.00 | 0.00 | 67 | 1015.8 |
| 20260510102530 | 0 | 0.0 | 0.0 | 0.00 | 0.00 | 0.00 | |||
| 20260510102459 | 56 | 34 | 2.0 | 3.0 | 0.00 | 0.00 | 0.00 | 67 | 1015.7 |
| 20260510102029 | 0 | 0.0 | 0.0 | 0.00 | 0.00 | 0.00 | |||
| 20260510101957 | 56 | 23 | 2.0 | 4.0 | 0.00 | 0.00 | 0.00 | 67 | 1015.7 |
| 20260510101529 | 0 | 0.0 | 0.0 | 0.00 | 0.00 | 0.00 | |||
| 20260510101457 | 56 | 55 | 2.0 | 3.0 | 0.00 | 0.00 | 0.00 | 66 | 1015.7 |
| 20260510101030 | 0 | 0.0 | 0.0 | 0.00 | 0.00 | 0.00 | |||
| 20260510100957 | 56 | 76 | 2.0 | 4.0 | 0.00 | 0.00 | 0.00 | 66 | 1015.8 |
| 20260510100527 | 0 | 0.0 | 0.0 | 0.00 | 0.00 | 0.00 | |||
| 20260510100457 | 56 | 59 | 3.0 | 4.0 | 0.00 | 0.00 | 0.00 | 67 | 1015.7 |
| 20260510100027 | 0 | 0.0 | 0.0 | 0.00 | 0.00 | 0.00 | |||
| 20260510095957 | 55 | 44 | 2.0 | 3.0 | 0.00 | 0.00 | 0.00 | 67 | 1015.7 |
| 20260510095525 | 0 | 0.0 | 0.0 | 0.00 | 0.00 | 0.00 | |||
| 20260510095458 | 55 | 52 | 3.0 | 4.0 | 0.00 | 0.00 | 0.00 | 69 | 1015.8 |
| 20260510095024 | 0 | 0.0 | 0.0 | 0.00 | 0.00 | 0.00 | |||
| 20260510094957 | 55 | 39 | 3.0 | 3.0 | 0.00 | 0.00 | 0.00 | 69 | 1015.9 |
| 20260510094524 | 0 | 0.0 | 0.0 | 0.00 | 0.00 | 0.00 | |||
| 20260510094457 | 55 | 35 | 2.0 | 3.0 | 0.00 | 0.00 | 0.00 | 69 | 1015.9 |
| 20260510094025 | 0 | 0.0 | 0.0 | 0.00 | 0.00 | 0.00 | |||
| 20260510093957 | 55 | 42 | 2.0 | 3.0 | 0.00 | 0.00 | 0.00 | 70 | 1015.9 |
| 20260510093521 | 0 | 0.0 | 0.0 | 0.00 | 0.00 | 0.00 | |||
| 20260510093457 | 56 | 44 | 2.0 | 3.0 | 0.00 | 0.00 | 0.00 | 69 | 1015.9 |
| 20260510093021 | 0 | 0.0 | 0.0 | 0.00 | 0.00 | 0.00 | |||
| 20260510092957 | 56 | 51 | 2.0 | 3.0 | 0.00 | 0.00 | 0.00 | 68 | 1016.0 |
| 20260510092522 | 0 | 0.0 | 0.0 | 0.00 | 0.00 | 0.00 | |||
| 20260510092457 | 56 | 51 | 2.0 | 2.0 | 0.00 | 0.00 | 0.00 | 67 | 1016.1 |
| 20260510092021 | 0 | 0.0 | 0.0 | 0.00 | 0.00 | 0.00 | |||
| 20260510091957 | 56 | 73 | 2.0 | 3.0 | 0.00 | 0.00 | 0.00 | 67 | 1016.0 |
| 20260510091458 | 56 | 86 | 2.0 | 2.0 | 0.00 | 0.00 | 0.00 | 68 | 1016.0 |
| 20260510091021 | 0 | 0.0 | 0.0 | 0.00 | 0.00 | 0.00 | |||
| 20260510090957 | 56 | 40 | 0.0 | 2.0 | 0.00 | 0.00 | 0.00 | 68 | 1016.0 |
| 20260510090522 | 0 | 0.0 | 0.0 | 0.00 | 0.00 | 0.00 | |||
| 20260510090457 | 56 | 27 | 1.0 | 2.0 | 0.00 | 0.00 | 0.00 | 69 | 1016.0 |
| 20260510090021 | 0 | 0.0 | 0.0 | 0.00 | 0.00 | 0.00 | |||
| 20260510085957 | 56 | 60 | 2.0 | 4.0 | 0.00 | 0.00 | 0.00 | 70 | 1015.9 |
| 20260510085522 | 0 | 0.0 | 0.0 | 0.00 | 0.00 | 0.00 | |||
| 20260510085457 | 56 | 48 | 2.0 | 2.0 | 0.00 | 0.00 | 0.00 | 68 | 1015.9 |
| 20260510085020 | 0 | 0.0 | 0.0 | 0.00 | 0.00 | 0.00 | |||
| 20260510084959 | 56 | 61 | 2.0 | 3.0 | 0.00 | 0.00 | 0.00 | 69 | 1015.9 |
| 20260510084525 | 0 | 0.0 | 0.0 | 0.00 | 0.00 | 0.00 | |||
| 20260510084457 | 56 | 102 | 2.0 | 3.0 | 0.00 | 0.00 | 0.00 | 67 | 1016.0 |
| 20260510083957 | 56 | 92 | 3.0 | 3.0 | 0.00 | 0.00 | 0.00 | 68 | 1016.0 |
| 20260510083520 | 0 | 0.0 | 0.0 | 0.00 | 0.00 | 0.00 | |||
| 20260510083457 | 56 | 114 | 2.0 | 3.0 | 0.00 | 0.00 | 0.00 | 68 | 1016.0 |
| 20260510083021 | 0 | 0.0 | 0.0 | 0.00 | 0.00 | 0.00 | |||
| 20260510082957 | 56 | 101 | 3.0 | 5.0 | 0.00 | 0.00 | 0.00 | 69 | 1016.0 |
| 20260510082520 | 0 | 0.0 | 0.0 | 0.00 | 0.00 | 0.00 | |||
| 20260510082458 | 56 | 104 | 2.0 | 3.0 | 0.00 | 0.00 | 0.00 | 69 | 1015.9 |
| 20260510081957 | 56 | 92 | 3.0 | 4.0 | 0.00 | 0.00 | 0.00 | 69 | 1015.8 |
| 20260510081457 | 56 | 87 | 4.0 | 5.0 | 0.00 | 0.00 | 0.00 | 69 | 1015.8 |
| 20260510081020 | 0 | 0.0 | 0.0 | 0.00 | 0.00 | 0.00 | |||
| 20260510080958 | 56 | 94 | 4.0 | 6.0 | 0.00 | 0.00 | 0.00 | 69 | 1015.9 |
| 20260510080520 | 0 | 0.0 | 0.0 | 0.00 | 0.00 | 0.00 | |||
| 20260510080457 | 56 | 92 | 4.0 | 5.0 | 0.00 | 0.00 | 0.00 | 69 | 1015.9 |
| 20260510080021 | 0 | 0.0 | 0.0 | 0.00 | 0.00 | 0.00 | |||
| 20260510075957 | 56 | 108 | 4.0 | 4.0 | 0.00 | 0.00 | 0.00 | 69 | 1015.9 |
| 20260510075520 | 0 | 0.0 | 0.0 | 0.00 | 0.00 | 0.00 | |||
| 20260510075457 | 56 | 99 | 5.0 | 6.0 | 0.00 | 0.00 | 0.00 | 69 | 1015.8 |
| 20260510075017 | 0 | 0.0 | 0.0 | 0.00 | 0.00 | 0.00 | |||
| 20260510074957 | 56 | 95 | 4.0 | 7.0 | 0.00 | 0.00 | 0.00 | 68 | 1015.9 |
| 20260510074518 | 0 | 0.0 | 0.0 | 0.00 | 0.00 | 0.00 | |||
| 20260510074458 | 56 | 95 | 5.0 | 7.0 | 0.00 | 0.00 | 0.00 | 68 | 1015.8 |
| 20260510074018 | 0 | 0.0 | 0.0 | 0.00 | 0.00 | 0.00 | |||
| 20260510073957 | 56 | 97 | 4.0 | 6.0 | 0.00 | 0.00 | 0.00 | 68 | 1015.8 |
| 20260510073517 | 0 | 0.0 | 0.0 | 0.00 | 0.00 | 0.00 | |||
| 20260510073457 | 56 | 100 | 4.0 | 6.0 | 0.00 | 0.00 | 0.00 | 68 | 1015.6 |
| 20260510072957 | 56 | 95 | 5.0 | 7.0 | 0.00 | 0.00 | 0.00 | 68 | 1015.6 |
| 20260510072458 | 56 | 93 | 5.0 | 6.0 | 0.00 | 0.00 | 0.00 | 68 | 1015.7 |
| 20260510072023 | 0 | 0.0 | 0.0 | 0.00 | 0.00 | 0.00 | |||
| 20260510071957 | 56 | 90 | 4.0 | 6.0 | 0.00 | 0.00 | 0.00 | 68 | 1015.7 |
| 20260510071523 | 0 | 0.0 | 0.0 | 0.00 | 0.00 | 0.00 | |||
| 20260510071458 | 56 | 95 | 4.0 | 5.0 | 0.00 | 0.00 | 0.00 | 68 | 1015.8 |
| 20260510071020 | 0 | 0.0 | 0.0 | 0.00 | 0.00 | 0.00 | |||
| 20260510070958 | 56 | 94 | 5.0 | 6.0 | 0.00 | 0.00 | 0.00 | 68 | 1015.8 |
| 20260510070519 | 0 | 0.0 | 0.0 | 0.00 | 0.00 | 0.00 | |||
| 20260510070459 | 56 | 104 | 4.0 | 5.0 | 0.00 | 0.00 | 0.00 | 68 | 1015.8 |
| 20260510070021 | 0 | 0.0 | 0.0 | 0.00 | 0.00 | 0.00 | |||
| 20260510065957 | 56 | 92 | 4.0 | 6.0 | 0.00 | 0.00 | 0.00 | 68 | 1015.9 |
| 20260510065457 | 56 | 103 | 4.0 | 7.0 | 0.00 | 0.00 | 0.00 | 68 | 1015.9 |
| 20260510065016 | 0 | 0.0 | 0.0 | 0.00 | 0.00 | 0.00 | |||
| 20260510064957 | 56 | 91 | 4.0 | 6.0 | 0.00 | 0.00 | 0.00 | 68 | 1015.8 |
| 20260510064517 | 0 | 0.0 | 0.0 | 0.00 | 0.00 | 0.00 | |||
| 20260510064457 | 56 | 89 | 4.0 | 5.0 | 0.00 | 0.00 | 0.00 | 68 | 1015.8 |
| 20260510064017 | 0 | 0.0 | 0.0 | 0.00 | 0.00 | 0.00 | |||
| 20260510063957 | 56 | 96 | 4.0 | 5.0 | 0.00 | 0.00 | 0.00 | 68 | 1015.7 |
| 20260510063515 | 0 | 0.0 | 0.0 | 0.00 | 0.00 | 0.00 | |||
| 20260510063457 | 56 | 89 | 4.0 | 5.0 | 0.00 | 0.00 | 0.00 | 67 | 1015.7 |
| 20260510063021 | 0 | 0.0 | 0.0 | 0.00 | 0.00 | 0.00 | |||
| 20260510062958 | 56 | 94 | 5.0 | 6.0 | 0.00 | 0.00 | 0.00 | 68 | 1015.8 |
| 20260510062515 | 0 | 0.0 | 0.0 | 0.00 | 0.00 | 0.00 | |||
| 20260510062457 | 55 | 96 | 5.0 | 6.0 | 0.00 | 0.00 | 0.00 | 68 | 1015.8 |
| 20260510062026 | 0 | 0.0 | 0.0 | 0.00 | 0.00 | 0.00 | |||
| 20260510061958 | 55 | 95 | 4.0 | 5.0 | 0.00 | 0.00 | 0.00 | 68 | 1015.9 |
| 20260510061521 | 0 | 0.0 | 0.0 | 0.00 | 0.00 | 0.00 | |||
| 20260510061457 | 56 | 97 | 5.0 | 6.0 | 0.00 | 0.00 | 0.00 | 68 | 1015.9 |
| 20260510060958 | 56 | 103 | 3.0 | 5.0 | 0.00 | 0.00 | 0.00 | 68 | 1015.9 |
| 20260510060457 | 56 | 101 | 3.0 | 4.0 | 0.00 | 0.00 | 0.00 | 69 | 1015.9 |
| 20260510060017 | 0 | 0.0 | 0.0 | 0.00 | 0.00 | 0.00 | |||
| 20260510055957 | 56 | 107 | 3.0 | 3.0 | 0.00 | 0.00 | 0.00 | 68 | 1015.9 |
| 20260510055457 | 56 | 104 | 3.0 | 4.0 | 0.00 | 0.00 | 0.00 | 68 | 1015.9 |
| 20260510055013 | 0 | 0.0 | 0.0 | 0.00 | 0.00 | 0.00 | |||
| 20260510054958 | 57 | 96 | 4.0 | 5.0 | 0.00 | 0.00 | 0.00 | 67 | 1015.9 |
| 20260510054457 | 56 | 106 | 4.0 | 5.0 | 0.00 | 0.00 | 0.00 | 67 | 1015.9 |
| 20260510053958 | 57 | 92 | 4.0 | 5.0 | 0.00 | 0.00 | 0.00 | 67 | 1016.0 |
| 20260510053513 | 0 | 0.0 | 0.0 | 0.00 | 0.00 | 0.00 | |||
| 20260510053457 | 56 | 88 | 4.0 | 4.0 | 0.00 | 0.00 | 0.00 | 67 | 1016.0 |
| 20260510053016 | 0 | 0.0 | 0.0 | 0.00 | 0.00 | 0.00 | |||
| 20260510052957 | 56 | 98 | 4.0 | 5.0 | 0.00 | 0.00 | 0.00 | 67 | 1016.0 |
| 20260510052514 | 0 | 0.0 | 0.0 | 0.00 | 0.00 | 0.00 | |||
| 20260510052457 | 57 | 91 | 4.0 | 5.0 | 0.00 | 0.00 | 0.00 | 66 | 1016.0 |
| 20260510051958 | 57 | 91 | 4.0 | 5.0 | 0.00 | 0.00 | 0.00 | 66 | 1016.0 |
| 20260510051515 | 0 | 0.0 | 0.0 | 0.00 | 0.00 | 0.00 | |||
| 20260510051457 | 57 | 99 | 4.0 | 4.0 | 0.00 | 0.00 | 0.00 | 66 | 1016.1 |
| 20260510050957 | 57 | 94 | 3.0 | 4.0 | 0.00 | 0.00 | 0.00 | 66 | 1016.2 |
| 20260510050515 | 0 | 0.0 | 0.0 | 0.00 | 0.00 | 0.00 | |||
| 20260510050457 | 57 | 90 | 3.0 | 4.0 | 0.00 | 0.00 | 0.00 | 66 | 1016.2 |
| 20260510050014 | 0 | 0.0 | 0.0 | 0.00 | 0.00 | 0.00 | |||
| 20260510045957 | 57 | 78 | 4.0 | 5.0 | 0.00 | 0.00 | 0.00 | 66 | 1016.4 |
| 20260510045512 | 0 | 0.0 | 0.0 | 0.00 | 0.00 | 0.00 | |||
| 20260510045457 | 57 | 84 | 3.0 | 4.0 | 0.00 | 0.00 | 0.00 | 66 | 1016.5 |
| 20260510045011 | 0 | 0.0 | 0.0 | 0.00 | 0.00 | 0.00 | |||
| 20260510044957 | 57 | 73 | 3.0 | 4.0 | 0.00 | 0.00 | 0.00 | 66 | 1016.6 |
| 20260510044511 | 0 | 0.0 | 0.0 | 0.00 | 0.00 | 0.00 | |||
| 20260510044458 | 56 | 80 | 3.0 | 4.0 | 0.00 | 0.00 | 0.00 | 66 | 1016.6 |
| 20260510043958 | 56 | 59 | 1.0 | 3.0 | 0.00 | 0.00 | 0.00 | 65 | 1016.5 |
| 20260510043513 | 0 | 0.0 | 0.0 | 0.00 | 0.00 | 0.00 | |||
| 20260510043457 | 56 | 47 | 2.0 | 3.0 | 0.00 | 0.00 | 0.00 | 63 | 1016.5 |
| 20260510043011 | 0 | 0.0 | 0.0 | 0.00 | 0.00 | 0.00 | |||
| 20260510042957 | 56 | 52 | 3.0 | 4.0 | 0.00 | 0.00 | 0.00 | 65 | 1016.5 |
| 20260510042511 | 0 | 0.0 | 0.0 | 0.00 | 0.00 | 0.00 | |||
| 20260510042458 | 56 | 53 | 2.0 | 3.0 | 0.00 | 0.00 | 0.00 | 67 | 1016.5 |
| 20260510042012 | 0 | 0.0 | 0.0 | 0.00 | 0.00 | 0.00 | |||
| 20260510041957 | 56 | 45 | 2.0 | 4.0 | 0.00 | 0.00 | 0.00 | 66 | 1016.5 |
| 20260510041513 | 0 | 0.0 | 0.0 | 0.00 | 0.00 | 0.00 | |||
| 20260510041458 | 56 | 40 | 2.0 | 4.0 | 0.00 | 0.00 | 0.00 | 66 | 1016.5 |
| 20260510041013 | 0 | 0.0 | 0.0 | 0.00 | 0.00 | 0.00 | |||
| 20260510040958 | 56 | 34 | 2.0 | 3.0 | 0.00 | 0.00 | 0.00 | 64 | 1016.5 |
| 20260510040512 | 0 | 0.0 | 0.0 | 0.00 | 0.00 | 0.00 | |||
| 20260510040458 | 56 | 33 | 2.0 | 4.0 | 0.00 | 0.00 | 0.00 | 65 | 1016.4 |
| 20260510040012 | 0 | 0.0 | 0.0 | 0.00 | 0.00 | 0.00 | |||
| 20260510035958 | 56 | 34 | 2.0 | 3.0 | 0.00 | 0.00 | 0.00 | 69 | 1016.4 |
| 20260510035509 | 0 | 0.0 | 0.0 | 0.00 | 0.00 | 0.00 | |||
| 20260510035457 | 56 | 29 | 2.0 | 3.0 | 0.00 | 0.00 | 0.00 | 69 | 1016.1 |
| 20260510035009 | 0 | 0.0 | 0.0 | 0.00 | 0.00 | 0.00 | |||
| 20260510034958 | 56 | 36 | 2.0 | 3.0 | 0.00 | 0.00 | 0.00 | 69 | 1016.1 |
| 20260510034509 | 0 | 0.0 | 0.0 | 0.00 | 0.00 | 0.00 | |||
| 20260510034457 | 56 | 27 | 2.0 | 3.0 | 0.00 | 0.00 | 0.00 | 70 | 1016.1 |
| 20260510034009 | 0 | 0.0 | 0.0 | 0.00 | 0.00 | 0.00 | |||
| 20260510033958 | 57 | 0 | 1.0 | 2.0 | 0.00 | 0.00 | 0.00 | 70 | 1016.2 |
| 20260510033458 | 57 | 30 | 2.0 | 3.0 | 0.00 | 0.00 | 0.00 | 70 | 1016.2 |
| 20260510033007 | 0 | 0.0 | 0.0 | 0.00 | 0.00 | 0.00 | |||
| 20260510032957 | 57 | 13 | 1.0 | 2.0 | 0.00 | 0.00 | 0.00 | 70 | 1016.2 |
| 20260510032507 | 0 | 0.0 | 0.0 | 0.00 | 0.00 | 0.00 | |||
| 20260510032458 | 58 | 38 | 1.0 | 3.0 | 0.00 | 0.00 | 0.00 | 69 | 1016.4 |
| 20260510032007 | 0 | 0.0 | 0.0 | 0.00 | 0.00 | 0.00 | |||
| 20260510031958 | 58 | 58 | 0.0 | 2.0 | 0.00 | 0.00 | 0.00 | 69 | 1016.4 |
| 20260510031506 | 0 | 0.0 | 0.0 | 0.00 | 0.00 | 0.00 | |||
| 20260510031458 | 58 | 29 | 1.0 | 3.0 | 0.00 | 0.00 | 0.00 | 68 | 1016.4 |
| 20260510031007 | 0 | 0.0 | 0.0 | 0.00 | 0.00 | 0.00 | |||
| 20260510030957 | 58 | 0 | 0.0 | 0.0 | 0.00 | 0.00 | 0.00 | 67 | 1016.2 |
| 20260510030506 | 0 | 0.0 | 0.0 | 0.00 | 0.00 | 0.00 | |||
| 20260510030457 | 58 | 80 | 0.0 | 2.0 | 0.00 | 0.00 | 0.00 | 67 | 1016.4 |
| 20260510030007 | 0 | 0.0 | 0.0 | 0.00 | 0.00 | 0.00 | |||
| 20260510025957 | 59 | 44 | 0.0 | 2.0 | 0.00 | 0.00 | 0.00 | 68 | 1016.5 |
| 20260510025507 | 0 | 0.0 | 0.0 | 0.00 | 0.00 | 0.00 | |||
| 20260510025457 | 59 | 328 | 0.0 | 1.0 | 0.00 | 0.00 | 0.00 | 67 | 1016.5 |
| 20260510025004 | 0 | 0.0 | 0.0 | 0.00 | 0.00 | 0.00 | |||
| 20260510024957 | 60 | 44 | 0.0 | 2.0 | 0.00 | 0.00 | 0.00 | 66 | 1016.5 |
| 20260510024504 | 0 | 0.0 | 0.0 | 0.00 | 0.00 | 0.00 | |||
| 20260510024457 | 60 | 47 | 1.0 | 2.0 | 0.00 | 0.00 | 0.00 | 66 | 1016.5 |
| 20260510024005 | 0 | 0.0 | 0.0 | 0.00 | 0.00 | 0.00 | |||
| 20260510023957 | 60 | 6 | 0.0 | 2.0 | 0.00 | 0.00 | 0.00 | 65 | 1016.5 |
| 20260510023504 | 0 | 0.0 | 0.0 | 0.00 | 0.00 | 0.00 | |||
| 20260510023457 | 61 | 0 | 0.0 | 0.0 | 0.00 | 0.00 | 0.00 | 64 | 1016.5 |
| 20260510023001 | 0 | 0.0 | 0.0 | 0.00 | 0.00 | 0.00 | |||
| 20260510022958 | 61 | 191 | 0.0 | 0.0 | 0.00 | 0.00 | 0.00 | 62 | 1016.5 |
| 20260510022501 | 0 | 0.0 | 0.0 | 0.00 | 0.00 | 0.00 | |||
| 20260510022457 | 62 | 193 | 1.0 | 2.0 | 0.00 | 0.00 | 0.00 | 61 | 1016.6 |
| 20260510022002 | 0 | 0.0 | 0.0 | 0.00 | 0.00 | 0.00 | |||
| 20260510021958 | 62 | 187 | 1.0 | 2.0 | 0.00 | 0.00 | 0.00 | 61 | 1016.7 |
| 20260510021501 | 0 | 0.0 | 0.0 | 0.00 | 0.00 | 0.00 | |||
| 20260510021457 | 62 | 160 | 1.0 | 2.0 | 0.00 | 0.00 | 0.00 | 60 | 1016.6 |
| 20260510021002 | 0 | 0.0 | 0.0 | 0.00 | 0.00 | 0.00 | |||
| 20260510020957 | 63 | 160 | 2.0 | 3.0 | 0.00 | 0.00 | 0.00 | 59 | 1016.7 |
| 20260510020502 | 0 | 0.0 | 0.0 | 0.00 | 0.00 | 0.00 | |||
| 20260510020457 | 63 | 223 | 2.0 | 2.0 | 0.00 | 0.00 | 0.00 | 59 | 1016.8 |
| 20260510015957 | 63 | 186 | 2.0 | 3.0 | 0.00 | 0.00 | 0.00 | 58 | 1016.8 |
| 20260510015500 | 0 | 0.0 | 0.0 | 0.00 | 0.00 | 0.00 | |||
| 20260510015457 | 64 | 218 | 2.0 | 4.0 | 0.00 | 0.00 | 0.00 | 58 | 1016.9 |
| 20260510014959 | 0 | 0.0 | 0.0 | 0.00 | 0.00 | 0.00 | |||
| 20260510014957 | 63 | 220 | 2.0 | 4.0 | 0.00 | 0.00 | 0.00 | 59 | 1017.0 |
| 20260510014459 | 0 | 0.0 | 0.0 | 0.00 | 0.00 | 0.00 | |||
| 20260510014457 | 63 | 167 | 2.0 | 3.0 | 0.00 | 0.00 | 0.00 | 59 | 1017.0 |
| 20260510013957 | 64 | 145 | 1.0 | 2.0 | 0.00 | 0.00 | 0.00 | 60 | 1016.9 |
| 20260510013500 | 0 | 0.0 | 0.0 | 0.00 | 0.00 | 0.00 | |||
| 20260510013457 | 64 | 172 | 1.0 | 2.0 | 0.00 | 0.00 | 0.00 | 58 | 1017.0 |
| 20260510012959 | 0 | 0.0 | 0.0 | 0.00 | 0.00 | 0.00 | |||
| 20260510012957 | 64 | 170 | 2.0 | 3.0 | 0.00 | 0.00 | 0.00 | 58 | 1017.1 |
| 20260510012500 | 0 | 0.0 | 0.0 | 0.00 | 0.00 | 0.00 | |||
| 20260510012457 | 64 | 154 | 1.0 | 2.0 | 0.00 | 0.00 | 0.00 | 58 | 1017.1 |
| 20260510011959 | 0 | 0.0 | 0.0 | 0.00 | 0.00 | 0.00 | |||
| 20260510011957 | 64 | 346 | 0.0 | 2.0 | 0.00 | 0.00 | 0.00 | 58 | 1017.2 |
| 20260510011457 | 64 | 243 | 3.0 | 5.0 | 0.00 | 0.00 | 0.00 | 57 | 1017.5 |
| 20260510011000 | 0 | 0.0 | 0.0 | 0.00 | 0.00 | 0.00 | |||
| 20260510010957 | 64 | 272 | 2.0 | 4.0 | 0.00 | 0.00 | 0.00 | 57 | 1017.6 |
| 20260510010457 | 64 | 208 | 2.0 | 4.0 | 0.00 | 0.00 | 0.00 | 57 | 1017.6 |
| 20260510005957 | 64 | 237 | 3.0 | 5.0 | 0.00 | 0.00 | 0.00 | 57 | 1017.5 |
| 20260510005457 | 0 | 0.0 | 0.0 | 0.00 | 0.00 | 0.00 | |||
| 20260510004957 | 65 | 291 | 3.0 | 5.0 | 0.00 | 0.00 | 0.00 | 57 | 1017.6 |
| 20260510004457 | 0 | 0.0 | 0.0 | 0.00 | 0.00 | 0.00 | |||
| 20260510003957 | 0 | 0.0 | 0.0 | 0.00 | 0.00 | 0.00 | |||
| 20260510003458 | 0 | 0.0 | 0.0 | 0.00 | 0.00 | 0.00 | |||
| 20260510002957 | 65 | 286 | 3.0 | 7.0 | 0.00 | 0.00 | 0.00 | 56 | 1017.8 |
| 20260510002955 | 0 | 0.0 | 0.0 | 0.00 | 0.00 | 0.00 | |||
| 20260510002457 | 64 | 304 | 3.0 | 6.0 | 0.00 | 0.00 | 0.00 | 57 | 1017.7 |
| 20260510001959 | 65 | 295 | 1.0 | 3.0 | 0.00 | 0.00 | 0.00 | 57 | 1017.9 |
| 20260510001955 | 0 | 0.0 | 0.0 | 0.00 | 0.00 | 0.00 | |||
| 20260510001457 | 64 | 276 | 3.0 | 5.0 | 0.00 | 0.00 | 0.00 | 57 | 1018.1 |
| 20260510000957 | 65 | 293 | 2.0 | 5.0 | 0.00 | 0.00 | 0.00 | 56 | 1018.1 |
| 20260510000954 | 0 | 0.0 | 0.0 | 0.00 | 0.00 | 0.00 | |||
| 20260510000457 | 64 | 289 | 2.0 | 3.0 | 0.00 | 0.00 | 0.00 | 57 | 1018.0 |
| 20260509235955 | 0 | 0.0 | 0.0 | 0.00 | 0.00 | 0.00 | |||
| 20260509235513 | 64 | 304 | 3.0 | 5.0 | 0.00 | 0.00 | 0.00 | 57 | 1018.1 |
| 20260509235452 | 0 | 0.0 | 0.0 | 0.00 | 0.00 | 0.00 | |||
| 20260509234957 | 63 | 271 | 2.0 | 5.0 | 0.00 | 0.00 | 0.00 | 58 | 1018.2 |
| 20260509234457 | 64 | 272 | 4.0 | 7.0 | 0.00 | 0.00 | 0.00 | 57 | 1018.4 |
| 20260509234452 | 0 | 0.0 | 0.0 | 0.00 | 0.00 | 0.00 | |||
| 20260509233957 | 63 | 275 | 2.0 | 5.0 | 0.00 | 0.00 | 0.00 | 56 | 1018.5 |
| 20260509233953 | 0 | 0.0 | 0.0 | 0.00 | 0.00 | 0.00 | |||
| 20260509233457 | 62 | 280 | 4.0 | 8.0 | 0.00 | 0.00 | 0.00 | 58 | 1018.5 |
| 20260509233452 | 0 | 0.0 | 0.0 | 0.00 | 0.00 | 0.00 | |||
| 20260509232957 | 62 | 313 | 6.0 | 8.0 | 0.00 | 0.00 | 0.00 | 58 | 1018.5 |
| 20260509232952 | 0 | 0.0 | 0.0 | 0.00 | 0.00 | 0.00 | |||
| 20260509232458 | 62 | 284 | 3.0 | 6.0 | 0.00 | 0.00 | 0.00 | 59 | 1018.6 |
| 20260509232453 | 0 | 0.0 | 0.0 | 0.00 | 0.00 | 0.00 | |||
| 20260509231957 | 63 | 290 | 3.0 | 6.0 | 0.00 | 0.00 | 0.00 | 57 | 1018.7 |
| 20260509231953 | 0 | 0.0 | 0.0 | 0.00 | 0.00 | 0.00 | |||
| 20260509231457 | 62 | 308 | 3.0 | 6.0 | 0.00 | 0.00 | 0.00 | 58 | 1018.7 |
| 20260509231452 | 0 | 0.0 | 0.0 | 0.00 | 0.00 | 0.00 | |||
| 20260509230957 | 63 | 281 | 4.0 | 6.0 | 0.00 | 0.00 | 0.00 | 58 | 1019.0 |
| 20260509230953 | 0 | 0.0 | 0.0 | 0.00 | 0.00 | 0.00 | |||
| 20260509230458 | 63 | 317 | 2.0 | 4.0 | 0.00 | 0.00 | 0.00 | 58 | 1019.1 |
| 20260509230454 | 0 | 0.0 | 0.0 | 0.00 | 0.00 | 0.00 | |||
| 20260509225957 | 63 | 298 | 2.0 | 4.0 | 0.00 | 0.00 | 0.00 | 58 | 1019.2 |
| 20260509225951 | 0 | 0.0 | 0.0 | 0.00 | 0.00 | 0.00 | |||
| 20260509225457 | 63 | 296 | 3.0 | 6.0 | 0.00 | 0.00 | 0.00 | 58 | 1019.2 |
| 20260509224957 | 63 | 273 | 3.0 | 8.0 | 0.00 | 0.00 | 0.00 | 58 | 1019.3 |
| 20260509224947 | 0 | 0.0 | 0.0 | 0.00 | 0.00 | 0.00 | |||
| 20260509224502 | 62 | 288 | 3.0 | 6.0 | 0.00 | 0.00 | 0.00 | 59 | 1019.4 |
| 20260509224448 | 0 | 0.0 | 0.0 | 0.00 | 0.00 | 0.00 | |||
| 20260509223957 | 62 | 304 | 4.0 | 7.0 | 0.00 | 0.00 | 0.00 | 59 | 1019.5 |
| 20260509223948 | 0 | 0.0 | 0.0 | 0.00 | 0.00 | 0.00 | |||
| 20260509223457 | 63 | 289 | 4.0 | 5.0 | 0.00 | 0.00 | 0.00 | 59 | 1019.5 |
| 20260509223448 | 0 | 0.0 | 0.0 | 0.00 | 0.00 | 0.00 | |||
| 20260509222957 | 63 | 241 | 4.0 | 6.0 | 0.00 | 0.00 | 0.00 | 58 | 1019.7 |
| 20260509222947 | 0 | 0.0 | 0.0 | 0.00 | 0.00 | 0.00 | |||
| 20260509222457 | 63 | 326 | 2.0 | 3.0 | 0.00 | 0.00 | 0.00 | 58 | 1019.7 |
| 20260509222448 | 0 | 0.0 | 0.0 | 0.00 | 0.00 | 0.00 | |||
| 20260509221957 | 63 | 269 | 5.0 | 9.0 | 0.00 | 0.00 | 0.00 | 57 | 1019.7 |
| 20260509221947 | 0 | 0.0 | 0.0 | 0.00 | 0.00 | 0.00 | |||
| 20260509221457 | 64 | 300 | 5.0 | 8.0 | 0.00 | 0.00 | 0.00 | 58 | 1019.9 |
| 20260509221448 | 0 | 0.0 | 0.0 | 0.00 | 0.00 | 0.00 | |||
| 20260509220957 | 64 | 287 | 6.0 | 10.0 | 0.00 | 0.00 | 0.00 | 56 | 1019.9 |
| 20260509220949 | 0 | 0.0 | 0.0 | 0.00 | 0.00 | 0.00 | |||
| 20260509220457 | 64 | 275 | 4.0 | 7.0 | 0.00 | 0.00 | 0.00 | 58 | 1020.0 |
| 20260509220445 | 0 | 0.0 | 0.0 | 0.00 | 0.00 | 0.00 | |||
| 20260509215957 | 64 | 265 | 2.0 | 7.0 | 0.00 | 0.00 | 0.00 | 57 | 1019.9 |
| 20260509215943 | 0 | 0.0 | 0.0 | 0.00 | 0.00 | 0.00 | |||
| 20260509215457 | 63 | 276 | 2.0 | 4.0 | 0.00 | 0.00 | 0.00 | 59 | 1020.1 |
| 20260509214957 | 63 | 281 | 4.0 | 7.0 | 0.00 | 0.00 | 0.00 | 59 | 1020.1 |
| 20260509214457 | 62 | 270 | 2.0 | 3.0 | 0.00 | 0.00 | 0.00 | 63 | 1020.2 |
| 20260509213957 | 61 | 301 | 5.0 | 8.0 | 0.00 | 0.00 | 0.00 | 64 | 1020.3 |
| 20260509213941 | 0 | 0.0 | 0.0 | 0.00 | 0.00 | 0.00 | |||
| 20260509213457 | 61 | 305 | 4.0 | 6.0 | 0.00 | 0.00 | 0.00 | 64 | 1020.2 |
| 20260509213441 | 0 | 0.0 | 0.0 | 0.00 | 0.00 | 0.00 | |||
| 20260509212958 | 61 | 290 | 4.0 | 7.0 | 0.00 | 0.00 | 0.00 | 65 | 1020.3 |
| 20260509212941 | 0 | 0.0 | 0.0 | 0.00 | 0.00 | 0.00 | |||
| 20260509212457 | 60 | 316 | 3.0 | 6.0 | 0.00 | 0.00 | 0.00 | 65 | 1020.3 |
| 20260509211957 | 60 | 309 | 2.0 | 5.0 | 0.00 | 0.00 | 0.00 | 66 | 1020.5 |
| 20260509211940 | 0 | 0.0 | 0.0 | 0.00 | 0.00 | 0.00 | |||
| 20260509211457 | 60 | 283 | 2.0 | 6.0 | 0.00 | 0.00 | 0.00 | 65 | 1020.5 |
| 20260509211441 | 0 | 0.0 | 0.0 | 0.00 | 0.00 | 0.00 | |||
| 20260509210957 | 60 | 299 | 2.0 | 5.0 | 0.00 | 0.00 | 0.00 | 65 | 1020.4 |
| 20260509210942 | 0 | 0.0 | 0.0 | 0.00 | 0.00 | 0.00 | |||
| 20260509210458 | 60 | 272 | 3.0 | 4.0 | 0.00 | 0.00 | 0.00 | 66 | 1020.6 |
| 20260509210441 | 0 | 0.0 | 0.0 | 0.00 | 0.00 | 0.00 | |||
| 20260509205957 | 60 | 298 | 5.0 | 10.0 | 0.00 | 0.00 | 0.00 | 68 | 1020.6 |
| 20260509205940 | 0 | 0.0 | 0.0 | 0.00 | 0.00 | 0.00 | |||
| 20260509205457 | 60 | 300 | 4.0 | 6.0 | 0.00 | 0.00 | 0.00 | 67 | 1020.7 |
| 20260509205437 | 0 | 0.0 | 0.0 | 0.00 | 0.00 | 0.00 | |||
| 20260509204958 | 60 | 290 | 3.0 | 6.0 | 0.00 | 0.00 | 0.00 | 69 | 1020.7 |
| 20260509204937 | 0 | 0.0 | 0.0 | 0.00 | 0.00 | 0.00 | |||
| 20260509204457 | 60 | 309 | 4.0 | 6.0 | 0.00 | 0.00 | 0.00 | 70 | 1020.8 |
| 20260509204438 | 0 | 0.0 | 0.0 | 0.00 | 0.00 | 0.00 | |||
| 20260509203957 | 59 | 257 | 4.0 | 7.0 | 0.00 | 0.00 | 0.00 | 70 | 1020.9 |
| 20260509203938 | 0 | 0.0 | 0.0 | 0.00 | 0.00 | 0.00 | |||
| 20260509203457 | 59 | 306 | 3.0 | 6.0 | 0.00 | 0.00 | 0.00 | 72 | 1020.7 |
| 20260509203438 | 0 | 0.0 | 0.0 | 0.00 | 0.00 | 0.00 | |||
| 20260509202957 | 59 | 272 | 3.0 | 4.0 | 0.00 | 0.00 | 0.00 | 71 | 1020.7 |
| 20260509202937 | 0 | 0.0 | 0.0 | 0.00 | 0.00 | 0.00 | |||
| 20260509202457 | 60 | 296 | 4.0 | 8.0 | 0.00 | 0.00 | 0.00 | 68 | 1020.5 |
| 20260509202438 | 0 | 0.0 | 0.0 | 0.00 | 0.00 | 0.00 | |||
| 20260509201957 | 60 | 294 | 2.0 | 3.0 | 0.00 | 0.00 | 0.00 | 70 | 1020.6 |
| 20260509201457 | 60 | 306 | 2.0 | 4.0 | 0.00 | 0.00 | 0.00 | 71 | 1020.7 |
| 20260509201438 | 0 | 0.0 | 0.0 | 0.00 | 0.00 | 0.00 | |||
| 20260509200957 | 60 | 282 | 4.0 | 6.0 | 0.00 | 0.00 | 0.00 | 68 | 1020.7 |